CW4549 Weather Reports


Display with metric or nautical units.
time (UTC)temp
F
wind
direction
speed
MPH
gust
MPH
rain 1hr
in
rain 24hr
in
rain mn
in
humidity
%
barometer
mb
20260905114516 69 0.0 0.0 0.01 0.08 0.06 100 1010.2
20260905113016 69 0.0 1.0 0.03 0.08 0.06 100 1010.2
20260905111516 69 0.0 0.0 0.06 0.08 0.06 100 1010.1
20260905110042 69 0.0 6.0 0.06 0.08 0.06 100 1010.2
20260905104516 70 45 1.0 8.0 0.05 0.07 0.05 100 1010.2
20260905103016 72 23 2.0 13.0 0.03 0.05 0.03 100 1010.3
20260905101516 74 68 1.0 19.0 0.00 0.02 0.00 100 1010.1
20260905100038 74 0.0 0.0 0.00 0.02 0.00 100 1008.4
20260905094516 74 0.0 0.0 0.00 0.02 0.00 100 1008.1
20260905093016 74 0.0 0.0 0.00 0.02 0.00 100 1008.1
20260905091516 74 0.0 0.0 0.00 0.02 0.00 100 1008.3
20260905090016 74 0.0 0.0 0.00 0.02 0.00 100 1007.9
20260905084516 74 0.0 0.0 0.00 0.02 0.00 100 1008.0
20260905083016 74 0.0 0.0 0.00 0.02 0.00 100 1008.0
20260905081516 74 0.0 0.0 0.00 0.02 0.00 100 1007.9
20260905080036 74 0.0 0.0 0.00 0.02 0.00 100 1007.5
20260905074516 74 0.0 0.0 0.00 0.02 0.00 100 1007.3
20260905073016 74 0.0 0.0 0.00 0.02 0.00 100 1007.3
20260905071517 74 0.0 0.0 0.00 0.02 0.00 100 1007.2
20260905070016 74 0.0 0.0 0.00 0.02 0.00 100 1007.4
20260905064516 74 0.0 0.0 0.00 0.02 0.00 100 1007.6
20260905063016 75 0.0 0.0 0.00 0.02 0.00 100 1007.9
20260905061518 74 0.0 0.0 0.00 0.02 0.00 100 1008.0
20260905060016 74 0.0 0.0 0.00 0.02 0.00 100 1008.1
20260905054516 75 0.0 0.0 0.00 0.02 0.00 100 1008.1
20260905053016 75 0.0 0.0 0.00 0.02 0.00 100 1008.4
20260905051516 75 0.0 0.0 0.00 0.02 0.00 100 1008.7
20260905050016 75 0.0 0.0 0.00 0.02 0.00 100 1009.0
20260905044516 75 0.0 0.0 0.00 0.02 0.00 100 1009.0
20260905043018 75 0.0 0.0 0.00 0.02 0.00 100 1009.0
20260905041517 75 0.0 0.0 0.00 0.02 0.00 100 1008.9
20260905040037 76 0.0 0.0 0.00 0.02 0.00 100 1008.9
20260905034517 76 0.0 0.0 0.00 0.02 0.02 100 1008.8
20260905033018 76 0.0 0.0 0.00 0.02 0.02 100 1009.0
20260905031518 76 0.0 0.0 0.00 0.02 0.02 100 1008.9
20260905030017 76 0.0 0.0 0.00 0.02 0.02 100 1008.8
20260905024537 76 0.0 0.0 0.00 0.02 0.02 100 1008.8
20260905023038 76 0.0 0.0 0.00 0.02 0.02 100 1008.9
20260905021517 77 0.0 0.0 0.00 0.02 0.02 100 1008.7
20260905020017 77 0.0 0.0 0.00 0.02 0.02 100 1008.6
20260905014517 77 0.0 0.0 0.00 0.02 0.02 99 1008.4
20260905013017 77 0.0 0.0 0.00 0.02 0.02 99 1008.4
20260905011519 78 0.0 0.0 0.00 0.02 0.02 99 1008.0
20260905010017 78 0.0 0.0 0.00 0.02 0.02 98 1008.2
20260905004517 78 0.0 0.0 0.00 0.02 0.02 98 1008.1
20260905003017 78 0.0 0.0 0.00 0.02 0.02 97 1008.2
20260905001517 79 0.0 0.0 0.00 0.02 0.02 97 1008.4
20260905000017 79 0.0 0.0 0.00 0.02 0.02 96 1008.4
20260904234517 80 0.0 0.0 0.00 0.02 0.02 96 1008.1
20260904233018 80 0.0 1.0 0.00 0.02 0.02 95 1008.3
20260904231539 80 0.0 1.0 0.00 0.02 0.02 95 1008.4
20260904230017 79 0.0 0.0 0.00 0.02 0.02 94 1008.1
20260904224515 79 0.0 1.0 0.00 0.02 0.02 93 1008.0
20260904223015 79 0.0 0.0 0.02 0.02 0.02 92 1007.9
20260904221537 79 0.0 3.0 0.02 0.02 0.02 90 1008.0
20260904220017 79 158 1.0 7.0 0.02 0.02 0.02 93 1008.6
20260904214515 79 0.0 6.0 0.02 0.02 0.02 92 1010.0
20260904213015 81 45 4.0 19.0 0.00 0.00 0.00 80 1011.2
20260904211555 89 23 3.0 16.0 0.00 0.00 0.00 55 1010.8
20260904210037 96 0.0 2.0 0.00 0.00 0.00 47 1008.7
20260904204516 96 0.0 3.0 0.00 0.00 0.00 45 1008.6
20260904203015 96 0.0 4.0 0.00 0.00 0.00 47 1008.5
20260904201515 96 0.0 1.0 0.00 0.00 0.00 49 1008.9
20260904200016 97 0.0 3.0 0.00 0.00 0.00 46 1008.9
20260904194515 97 0.0 3.0 0.00 0.00 0.00 46 1009.0
20260904193037 97 0.0 4.0 0.00 0.00 0.00 46 1008.9
20260904191537 96 0.0 6.0 0.00 0.00 0.00 50 1009.1
20260904190017 96 0.0 5.0 0.00 0.00 0.00 48 1009.4
20260904184516 96 0.0 7.0 0.00 0.00 0.00 51 1009.6
20260904183016 96 0.0 5.0 0.00 0.00 0.00 49 1009.9
20260904181515 97 68 1.0 6.0 0.00 0.00 0.00 46 1010.1
20260904180058 97 0.0 3.0 0.00 0.00 0.00 48 1010.3
20260904174516 96 0.0 5.0 0.00 0.00 0.00 49 1010.5
20260904173016 96 0.0 3.0 0.00 0.00 0.00 50 1010.7
20260904171538 96 45 1.0 6.0 0.00 0.00 0.00 50 1010.7
20260904170016 96 0.0 5.0 0.00 0.00 0.00 50 1010.8
20260904164516 96 0.0 7.0 0.00 0.00 0.00 49 1010.7
20260904163015 95 0.0 3.0 0.00 0.00 0.00 52 1010.8
20260904161516 95 0.0 7.0 0.00 0.00 0.00 52 1010.9
20260904160016 94 0.0 5.0 0.00 0.00 0.00 53 1010.8
20260904154516 94 0.0 3.0 0.00 0.00 0.00 56 1010.9
20260904153016 93 0.0 2.0 0.00 0.00 0.00 62 1011.0
20260904151516 92 0.0 2.0 0.00 0.00 0.00 62 1010.8
20260904150016 91 0.0 2.0 0.00 0.00 0.00 63 1010.7
20260904144516 89 0.0 2.0 0.00 0.00 0.00 65 1010.7
20260904143036 88 0.0 3.0 0.00 0.00 0.00 67 1010.8
20260904141516 87 0.0 1.0 0.00 0.00 0.00 72 1010.7
20260904140018 85 0.0 2.0 0.00 0.00 0.00 71 1010.8
20260904134536 84 0.0 3.0 0.00 0.00 0.00 75 1010.9
20260904133017 83 0.0 1.0 0.00 0.00 0.00 78 1011.1
20260904131516 82 0.0 1.0 0.00 0.00 0.00 81 1011.1
20260904130016 80 0.0 2.0 0.00 0.00 0.00 86 1011.1
20260904124517 78 0.0 1.0 0.00 0.00 0.00 94 1011.1
20260904123016 77 0.0 0.0 0.00 0.00 0.00 98 1010.9
20260904121518 77 0.0 0.0 0.00 0.00 0.00 97 1010.8
20260904120016 77 0.0 0.0 0.00 0.00 0.00 97 1010.6